Messwerte Zeltweg

Temperatur

Temperatur
°C
1660302000 13.00 13.00 17
1660305600 14.00 14.00 18
1660309200 15.00 15.00 16
1660312800 16.00 16.00 15
1660316400 17.00 17.00 15
1660320000 18.00 18.00 15
1660323600 19.00 19.00 14
1660327200 20.00 20.00 14
1660330800 21.00 21.00 13
1660334400 22.00 22.00 13
1660338000 23.00 23.00 12
1660341600 0.00 0.00
1660345200 1.00 1.00
1660348800 2.00 2.00 12
1660352400 3.00 3.00
1660356000 4.00 4.00
1660359600 5.00 5.00 12
1660363200 6.00 6.00 11
1660366800 7.00 7.00 11
1660370400 8.00 8.00 11
1660374000 9.00 9.00 12
1660377600 10.00 10.00 12
1660381200 11.00 11.00 13
1660384800 12.00 12.00 14

Aktuellste Messwerte

Wettercharakter
Wetter: wolkig, aber kaum Regen
Temperatur
14 °C
Feuchtigkeit
85 %
Wind
5 km/h, -
Luftdruck
1018 hPa
Messzeit: 13. August 2022, 13.00Datenquelle: METAR

Weitere Messstationen in der Nähe

Messstation Temperatur Entfernung
Graz 18 °C 56 km
Klagenfurt 16 °C 69 km
Maribor 18 °C 107 km
Ljubljana 16 °C 111 km
Tarvisio - 118 km
Linz 24 °C 122 km
Vöslau 25 °C 142 km

Wind

Windrichtung Böen Mittelwind
° km/h km/h
1660302000 13.00 12.00 - 13.00 260° 25
1660305600 14.00 13.00 - 14.00 220° 15
1660309200 15.00 14.00 - 15.00 240° 10
1660312800 16.00 15.00 - 16.00 160° 10
1660316400 17.00 16.00 - 17.00 140° 5
1660320000 18.00 17.00 - 18.00 80° 5
1660323600 19.00 18.00 - 19.00 150° 5
1660327200 20.00 19.00 - 20.00 210° 10
1660330800 21.00 20.00 - 21.00 160° 5
1660334400 22.00 21.00 - 22.00 320° 5
1660338000 23.00 22.00 - 23.00 240° 5
1660341600 0.00 23.00 - 0.00
1660345200 1.00 0.00 - 1.00
1660348800 2.00 1.00 - 2.00 5
1660352400 3.00 2.00 - 3.00
1660356000 4.00 3.00 - 4.00
1660359600 5.00 4.00 - 5.00 100° 5
1660363200 6.00 5.00 - 6.00 5
1660366800 7.00 6.00 - 7.00 250° 5
1660370400 8.00 7.00 - 8.00 270° 5
1660374000 9.00 8.00 - 9.00 5
1660377600 10.00 9.00 - 10.00 5
1660381200 11.00 10.00 - 11.00 5
1660384800 12.00 11.00 - 12.00 0

Ihre Wetterstation

Fehlt Ihre Wetterstation auf unserem Portal?

Schreiben Sie an network@meteonews.ch

Klima

Wann ist es am wärmsten? Wann regnet es am wenigsten? Unsere Klimadaten geben Auskunft.